Tracking 35331 objects as of 16-Sep-2026
HD Live streaming from Space Station
objects crossing your sky now

COSMOS 1484 DEB


COSMOS 1484 DEB is no longer on orbit


NORAD ID: 22942
Int'l Code: 1983-075AF
Launch date: July 24, 1983
Source: Commonwealth of Independent States (former USSR) (CIS)
Launch site: TYURATAM MISSILE AND SPACE COMPLEX (TTMTR)
Decay date: 1995-11-13

Note: This is SATELLITE DEBRIS
Your satellite tracking list
Your tracking list is empty




NASA's NSSDC Master Catalog

Two Line Element Set (TLE):
1 22942U 83075 AF 95296.49924397  .00010806 +00000-0 +19414-3 0  9997
2 22942 097.4872 330.9756 0013459 120.1661 240.1484 15.49757144019268
Source of the keplerian elements: AFSPC